Location: Gajan
(43.0218°N, 1.1244°E)
Time: 16:21:57
(UTC+00:00)

Spot 2 Rocket - Pass Details

Date: 22 April 2021
Orbit: 756 x 773 km, 98.5° (Epoch: 13 May)

Event Time Altitude Azimuth Distance (km) Brightness Sun altitude
Exits shadow 20:32:07 30° 105° (ESE) 1,363 4.3 -17.9°
Maximum altitude 20:33:41 37° 68° (ENE) 1,187 4.2 -18.1°
Drops below altitude 10° 20:38:18 10° 3° (N) 2,308 6.5 -18.8°
Sets 20:40:45 0° 355° (N) 3,236 7.4 -19.1°
